sat.trackr.live / text

‹ back to catalog

YAMAL 402

NORAD 39022 · 2012-070A

PAYLOAD ACTIVE UNKNOWN

§ Identity

Operator
Country
CIS
Launch date
2012-12-08
Launch site
TYMSC
Launch vehicle
Mass (kg)
RCS (m²)
39.81

Purposes: comms

External: N2YO · Heavens-Above · Gunter

§ Orbital elements

Epoch: 2026-05-25T04:00:15.762240Z

Period
1,436.10 min
Inclination
1.2083°
Eccentricity
0.0003897
Mean motion
1.00271541 rev/d
Perigee alt
35,770.2 km
Apogee alt
35,803.1 km
Semi-major
42,164.8 km
B*
0.0000e+0
RAAN
84.4285°
Arg perigee
335.6993°
Mean anomaly
297.5907°
Rev number
4,916

§ Raw data

YAMAL 4021 39022U 12070A   26145.16684910  .00000084  00000+0  00000+0 0  99992 39022   1.2083  84.4285 0003897 335.6993 297.5907  1.00271541 49168

JSON: /api/v1/satellites/39022 · /tle

For live sub-satellite position, see the globe view (requires WebGL).

§ Visibility from observer

Set your observer location to see the next 7 days of passes ≥ 10°. The values pass through the URL so the page stays shareable.

No JS? Fill the form by hand. The geolocation button needs JavaScript.